Wilmington, NC

3:36 PM EDT on July 26, 2017 (GMT -0400)
Wilmington International

Weather History for KILM - August, 2013

Change the Weather History Date:

Sunday, August 4, 2013

  Actual Average Record
Temperature  
Mean Temperature 80 °F 81 °F  
Max Temperature 91 °F 89 °F 99 °F (1954)
Min Temperature 69 °F 72 °F 62 °F (1985)
Degree Days  
Heating Degree Days 0 0  
Month to date heating degree days 0 0  
Since 1 June heating degree days 0 2  
Since 1 July heating degree days 0 0  
Cooling Degree Days 15 16  
Month to date cooling degree days 62 64  
Year to date cooling degree days 1135 1231  
Since 1 June cooling degree days 909 950  
Growing Degree Days 30 (Base 50)    
Moisture  
Dew Point 71 °F    
Average Humidity 77    
Maximum Humidity 97    
Minimum Humidity 56    
Precipitation  
Precipitation T in 0.26 in 4.83 in (1911)
Month to date precipitation 1.42 1.00  
Year to date precipitation 35.44 32.56  
Sea Level Pressure  
Sea Level Pressure 29.94 in    
Wind  
Wind Speed 6 mph (WNW)    
Max Wind Speed 21 mph    
Max Gust Speed 23 mph    
Visibility 10 miles    
Events      
T = Trace of Precipitation, MM = Missing Value Source: NWS Daily Summary

Daily Weather History Graph

Daily Weather History Graph

Search for Another Location

Airport or City:

Trip Planner

Search our weather history database for the weather conditions in past years. The results will help you decide how hot, cold, wet, or windy it might be!

Date:

Astronomy

Aug. 04, 2013 Rise Set
Actual Time 6:24 AM EDT 8:09 PM EDT
Civil Twilight 5:57 AM EDT 8:37 PM EDT
Nautical Twilight 5:24 AM EDT 9:10 PM EDT
Astronomical Twilight 4:49 AM EDT 9:44 PM EDT
Moon 4:25 AM EDT (8/4) 6:31 PM EDT (8/4)
Length of Visible Light 14h 39m
Length of Day
13h 45m
Waning Crescent, 5% of the Moon is Illuminated
Aug 4
Waning Crescent
Aug 6
New
Aug 14
First Quarter
Aug 20
Full
Aug 28
Last Quarter

Hourly Weather History & Observations

Time (EDT) Temp. Heat Index Dew Point Humidity Pressure Visibility Wind Dir Wind Speed Gust Speed Precip Events Conditions
12:53 AM 78.1 °F - 73.9 °F 87% 29.94 in 10.0 mi SW 4.6 mph - N/A   Clear
1:53 AM 78.1 °F - 73.9 °F 87% 29.92 in 10.0 mi WSW 6.9 mph - N/A   Clear
2:53 AM 75.0 °F - 73.9 °F 96% 29.90 in 10.0 mi SW 4.6 mph - N/A   Clear
3:53 AM 75.9 °F - 73.9 °F 94% 29.90 in 10.0 mi West 6.9 mph - N/A   Clear
4:53 AM 75.0 °F - 73.0 °F 94% 29.89 in 10.0 mi WSW 5.8 mph - N/A   Clear
5:53 AM 75.0 °F - 73.0 °F 94% 29.90 in 10.0 mi WSW 4.6 mph - N/A   Clear
6:53 AM 75.0 °F - 73.0 °F 94% 29.91 in 9.0 mi WSW 4.6 mph - N/A   Clear
7:53 AM 77.0 °F - 73.0 °F 88% 29.93 in 10.0 mi WSW 4.6 mph - N/A   Clear
8:53 AM 80.1 °F 84.2 °F 73.0 °F 79% 29.94 in 10.0 mi WSW 5.8 mph - N/A   Clear
9:53 AM 82.9 °F 89.4 °F 73.9 °F 74% 29.93 in 10.0 mi Variable 3.5 mph - N/A   Clear
10:53 AM 84.9 °F 92.1 °F 73.9 °F 69% 29.92 in 10.0 mi WSW 6.9 mph - N/A   Clear
11:53 AM 89.1 °F 96.0 °F 72.0 °F 57% 29.92 in 10.0 mi Variable 3.5 mph - N/A   Clear
12:53 PM 88.0 °F 93.8 °F 71.1 °F 57% 29.91 in 10.0 mi West 12.7 mph 16.1 mph N/A   Mostly Cloudy
1:53 PM 90.0 °F 97.9 °F 73.0 °F 57% 29.89 in 10.0 mi West 4.6 mph - N/A   Scattered Clouds
2:53 PM 86.0 °F 96.0 °F 75.9 °F 72% 29.91 in 10.0 mi North 10.4 mph - 0.00 in   Scattered Clouds
3:53 PM 86.0 °F 92.2 °F 72.0 °F 63% 29.92 in 10.0 mi North 11.5 mph - N/A   Mostly Cloudy
4:53 PM 84.0 °F 88.4 °F 70.0 °F 63% 29.92 in 10.0 mi North 10.4 mph - N/A   Overcast
5:53 PM 82.9 °F 87.0 °F 70.0 °F 65% 29.94 in 10.0 mi North 6.9 mph - N/A   Mostly Cloudy
6:53 PM 82.9 °F 85.4 °F 66.9 °F 58% 29.96 in 10.0 mi NNE 10.4 mph - N/A   Clear
7:53 PM 78.1 °F - 66.9 °F 68% 29.97 in 10.0 mi NNE 6.9 mph - N/A   Clear
8:53 PM 75.0 °F - 66.0 °F 73% 29.98 in 10.0 mi Calm Calm - N/A   Clear
9:53 PM 73.0 °F - 68.0 °F 84% 30.01 in 10.0 mi Calm Calm - N/A   Clear
10:53 PM 70.0 °F - 68.0 °F 93% 30.02 in 10.0 mi Calm Calm - N/A   Clear
11:53 PM 70.0 °F - 64.9 °F 84% 30.03 in 10.0 mi NNE 4.6 mph - N/A   Clear